Station Historical Data
Daily Summary for July 26, 2012 Units:  English    Metric   Both
« Previous Day
Next Day »
Daily Weekly Monthly Yearly Custom
  High: Low: Average:
Temperature: 91.7 °F 74.1 °F 82.8 °F
Dew Point: 77.9 °F 71.6 °F 74.7 °F
Humidity: 92% 58% 78%
Wind Speed: 12.0mph 0.0mph 3.9mph
Wind Gust: 15.0mph - -
Wind- - SSW
Pressure: 29.91 in 29.77 in -
Precipitation: 0.00 in    
Historical Graphs
 
 
Tabular Data for July 26, 2012
Time Temperature Dew Point Pressure Wind Wind Speed Wind Gust Humidity Rainfall Rate (Hourly) Conditions
00:00 79.2 °F 73.6 °F 29.86 in SSE 2.0 mph 2.0 mph 83% 0.00 in
00:05 79.3 °F 73.7 °F 29.86 in SSE 2.0 mph 3.0 mph 83% 0.00 in
00:10 79.3 °F 73.7 °F 29.85 in SSE 1.0 mph 3.0 mph 83% 0.00 in
00:15 79.2 °F 73.6 °F 29.85 in SSE 1.0 mph 3.0 mph 83% 0.00 in
00:21 79.2 °F 73.9 °F 29.85 in Calm   2.0 mph 84% 0.00 in
00:26 78.9 °F 73.7 °F 29.86 in Calm   1.0 mph 84% 0.00 in
00:31 78.7 °F 73.8 °F 29.85 in Calm     85% 0.00 in
00:36 78.4 °F 73.5 °F 29.85 in SSE 1.0 mph 1.0 mph 85% 0.00 in
00:41 78.1 °F 73.6 °F 29.85 in SSE 1.0 mph 2.0 mph 86% 0.00 in
00:46 78.0 °F 73.8 °F 29.85 in South 1.0 mph 2.0 mph 87% 0.00 in
00:51 78.0 °F 73.8 °F 29.85 in SSE 2.0 mph 3.0 mph 87% 0.00 in
00:56 78.0 °F 73.8 °F 29.85 in SSE 1.0 mph 2.0 mph 87% 0.00 in
01:01 77.9 °F 73.7 °F 29.85 in SSE 2.0 mph 3.0 mph 87% 0.00 in
01:06 78.0 °F 73.8 °F 29.85 in South 2.0 mph 3.0 mph 87% 0.00 in
01:11 78.1 °F 73.9 °F 29.85 in South 3.0 mph 3.0 mph 87% 0.00 in
01:16 78.1 °F 73.9 °F 29.85 in South 1.0 mph 3.0 mph 87% 0.00 in
01:21 78.0 °F 73.8 °F 29.85 in SSE 2.0 mph 2.0 mph 87% 0.00 in
01:26 77.9 °F 73.7 °F 29.84 in SSE 2.0 mph 3.0 mph 87% 0.00 in
01:31 77.9 °F 73.7 °F 29.84 in South 2.0 mph 3.0 mph 87% 0.00 in
01:36 77.9 °F 73.7 °F 29.84 in SSE 2.0 mph 2.0 mph 87% 0.00 in
01:41 77.8 °F 73.6 °F 29.84 in SSE 1.0 mph 1.0 mph 87% 0.00 in
01:46 77.8 °F 73.6 °F 29.84 in SSE 2.0 mph 2.0 mph 87% 0.00 in
01:51 77.7 °F 73.5 °F 29.83 in South 2.0 mph 2.0 mph 87% 0.00 in
01:56 77.7 °F 73.5 °F 29.83 in SSE 1.0 mph 3.0 mph 87% 0.00 in
02:01 77.6 °F 73.8 °F 29.83 in SSE 2.0 mph 3.0 mph 88% 0.00 in
02:06 77.5 °F 73.7 °F 29.83 in SSE 2.0 mph 3.0 mph 88% 0.00 in
02:12 77.4 °F 73.6 °F 29.83 in SSE 2.0 mph 3.0 mph 88% 0.00 in
02:17 77.2 °F 73.4 °F 29.83 in SSE 2.0 mph 2.0 mph 88% 0.00 in
02:22 77.1 °F 73.3 °F 29.83 in SSE 2.0 mph 2.0 mph 88% 0.00 in
02:27 76.9 °F 73.4 °F 29.83 in SSE 2.0 mph 2.0 mph 89% 0.00 in
02:32 76.7 °F 73.2 °F 29.83 in SSE 2.0 mph 2.0 mph 89% 0.00 in
02:37 76.5 °F 73.0 °F 29.83 in SSE 2.0 mph 2.0 mph 89% 0.00 in
02:42 76.3 °F 73.2 °F 29.83 in SSE 2.0 mph 2.0 mph 90% 0.00 in
02:47 76.2 °F 73.1 °F 29.83 in SSE 2.0 mph 2.0 mph 90% 0.00 in
02:52 76.1 °F 73.0 °F 29.83 in SSE 1.0 mph 2.0 mph 90% 0.00 in
02:57 76.2 °F 73.1 °F 29.83 in South 2.0 mph 3.0 mph 90% 0.00 in
03:02 76.2 °F 73.1 °F 29.82 in South 2.0 mph 2.0 mph 90% 0.00 in
03:07 76.2 °F 73.1 °F 29.82 in SSE 2.0 mph 2.0 mph 90% 0.00 in
03:12 76.3 °F 73.2 °F 29.82 in SSE 2.0 mph 4.0 mph 90% 0.00 in
03:17 76.3 °F 73.2 °F 29.82 in SE 2.0 mph 3.0 mph 90% 0.00 in
03:22 76.4 °F 73.2 °F 29.82 in SSW 2.0 mph 3.0 mph 90% 0.00 in
03:27 76.4 °F 73.2 °F 29.82 in SSW 2.0 mph 2.0 mph 90% 0.00 in
03:32 76.5 °F 73.3 °F 29.82 in South 2.0 mph 3.0 mph 90% 0.00 in
03:37 76.5 °F 73.3 °F 29.82 in South 1.0 mph 3.0 mph 90% 0.00 in
03:42 76.4 °F 73.2 °F 29.83 in South 2.0 mph 3.0 mph 90% 0.00 in
03:47 76.4 °F 73.2 °F 29.83 in South 1.0 mph 2.0 mph 90% 0.00 in
03:52 76.4 °F 73.2 °F 29.83 in Calm   2.0 mph 90% 0.00 in
03:57 76.3 °F 73.2 °F 29.83 in South 2.0 mph 2.0 mph 90% 0.00 in
04:02 76.3 °F 73.2 °F 29.83 in Calm   2.0 mph 90% 0.00 in
04:07 76.2 °F 73.1 °F 29.83 in Calm   1.0 mph 90% 0.00 in
04:12 76.1 °F 73.0 °F 29.83 in SSW 1.0 mph 1.0 mph 90% 0.00 in
04:17 75.9 °F 72.8 °F 29.83 in South 1.0 mph 2.0 mph 90% 0.00 in
04:22 75.9 °F 73.1 °F 29.83 in SSE 2.0 mph 2.0 mph 91% 0.00 in
04:27 75.9 °F 73.1 °F 29.83 in SSW 2.0 mph 3.0 mph 91% 0.00 in
04:32 75.7 °F 72.9 °F 29.83 in SSE 2.0 mph 2.0 mph 91% 0.00 in
04:38 75.7 °F 72.9 °F 29.83 in South 1.0 mph 2.0 mph 91% 0.00 in
04:43 75.7 °F 72.9 °F 29.83 in South 1.0 mph 3.0 mph 91% 0.00 in
04:48 75.6 °F 72.8 °F 29.83 in South 1.0 mph 3.0 mph 91% 0.00 in
04:53 75.7 °F 72.9 °F 29.83 in SSW 1.0 mph 3.0 mph 91% 0.00 in
04:58 75.6 °F 72.8 °F 29.83 in SSE 1.0 mph 2.0 mph 91% 0.00 in
05:03 75.5 °F 72.7 °F 29.83 in South 1.0 mph 2.0 mph 91% 0.00 in
05:08 75.4 °F 72.6 °F 29.84 in SSE 2.0 mph 3.0 mph 91% 0.00 in
05:13 75.3 °F 72.8 °F 29.84 in South 2.0 mph 3.0 mph 92% 0.00 in
05:18 75.4 °F 72.9 °F 29.84 in SSW 1.0 mph 4.0 mph 92% 0.00 in
05:23 75.4 °F 72.9 °F 29.84 in South 2.0 mph 4.0 mph 92% 0.00 in
05:28 75.3 °F 72.8 °F 29.84 in SSW 2.0 mph 3.0 mph 92% 0.00 in
05:33 75.3 °F 72.8 °F 29.85 in Calm   3.0 mph 92% 0.00 in
05:38 75.2 °F 72.7 °F 29.85 in SSE 1.0 mph 2.0 mph 92% 0.00 in
05:43 75.1 °F 72.6 °F 29.85 in SW 1.0 mph 1.0 mph 92% 0.00 in
05:48 74.9 °F 72.4 °F 29.85 in SW 2.0 mph 2.0 mph 92% 0.00 in
05:53 74.8 °F 72.3 °F 29.85 in WSW 1.0 mph 2.0 mph 92% 0.00 in
05:58 74.8 °F 72.3 °F 29.85 in SW 1.0 mph 2.0 mph 92% 0.00 in
06:03 74.7 °F 72.2 °F 29.85 in WSW 1.0 mph 2.0 mph 92% 0.00 in
06:08 74.5 °F 72.0 °F 29.85 in SW 1.0 mph 1.0 mph 92% 0.00 in
06:13 74.4 °F 71.9 °F 29.85 in Calm   1.0 mph 92% 0.00 in
06:18 74.2 °F 71.7 °F 29.86 in South 2.0 mph 2.0 mph 92% 0.00 in
06:23 74.2 °F 71.7 °F 29.86 in Calm   1.0 mph 92% 0.00 in
06:28 74.2 °F 71.7 °F 29.86 in Calm   2.0 mph 92% 0.00 in
06:33 74.1 °F 71.6 °F 29.87 in South 1.0 mph 2.0 mph 92% 0.00 in
06:38 74.1 °F 71.6 °F 29.87 in South 2.0 mph 3.0 mph 92% 0.00 in
06:43 74.1 °F 71.6 °F 29.87 in SSE 2.0 mph 3.0 mph 92% 0.00 in
06:48 74.1 °F 71.6 °F 29.87 in South 1.0 mph 3.0 mph 92% 0.00 in
06:53 74.2 °F 71.7 °F 29.87 in Calm   3.0 mph 92% 0.00 in
06:58 74.2 °F 71.7 °F 29.87 in SW 1.0 mph 2.0 mph 92% 0.00 in
07:03 74.2 °F 71.7 °F 29.87 in South 2.0 mph 3.0 mph 92% 0.00 in
07:08 74.2 °F 71.7 °F 29.88 in SW 2.0 mph 2.0 mph 92% 0.00 in
07:13 74.2 °F 71.7 °F 29.88 in SSW 1.0 mph 2.0 mph 92% 0.00 in
07:18 74.4 °F 71.9 °F 29.88 in SSW 2.0 mph 3.0 mph 92% 0.00 in
07:23 74.5 °F 72.0 °F 29.88 in SSW 2.0 mph 3.0 mph 92% 0.00 in
07:28 74.7 °F 72.2 °F 29.88 in SSE 3.0 mph 4.0 mph 92% 0.00 in
07:33 74.9 °F 72.4 °F 29.88 in SW 2.0 mph 4.0 mph 92% 0.00 in
07:38 75.2 °F 72.7 °F 29.88 in SSW 1.0 mph 5.0 mph 92% 0.00 in
07:44 75.6 °F 73.1 °F 29.89 in SW 3.0 mph 4.0 mph 92% 0.00 in
07:49 76.0 °F 73.5 °F 29.89 in SW 2.0 mph 4.0 mph 92% 0.00 in
07:54 76.3 °F 73.5 °F 29.89 in SSW 2.0 mph 4.0 mph 91% 0.00 in
07:59 76.6 °F 73.8 °F 29.89 in SSE 4.0 mph 4.0 mph 91% 0.00 in
08:04 77.0 °F 74.2 °F 29.89 in SSW 4.0 mph 4.0 mph 91% 0.00 in
08:09 77.2 °F 74.4 °F 29.89 in SSW 4.0 mph 4.0 mph 91% 0.00 in
08:14 77.4 °F 74.2 °F 29.90 in SSE 4.0 mph 6.0 mph 90% 0.00 in
08:19 77.6 °F 74.4 °F 29.90 in SW 5.0 mph 6.0 mph 90% 0.00 in
08:24 77.8 °F 74.6 °F 29.90 in SSW 4.0 mph 6.0 mph 90% 0.00 in
08:29 78.1 °F 74.9 °F 29.90 in SSW 4.0 mph 6.0 mph 90% 0.00 in
08:34 78.3 °F 74.8 °F 29.90 in SW 3.0 mph 4.0 mph 89% 0.00 in
08:39 78.6 °F 75.1 °F 29.90 in SSW 4.0 mph 6.0 mph 89% 0.00 in
08:44 78.8 °F 75.3 °F 29.90 in West 4.0 mph 9.0 mph 89% 0.00 in
08:49 79.1 °F 75.2 °F 29.90 in SW 2.0 mph 6.0 mph 88% 0.00 in
08:54 79.3 °F 75.4 °F 29.90 in SSW 6.0 mph 6.0 mph 88% 0.00 in
08:59 79.4 °F 75.2 °F 29.90 in SW 4.0 mph 9.0 mph 87% 0.00 in
09:04 79.7 °F 75.5 °F 29.91 in SW 6.0 mph 7.0 mph 87% 0.00 in
09:09 79.8 °F 75.2 °F 29.90 in SSW 5.0 mph 8.0 mph 86% 0.00 in
09:14 80.0 °F 75.4 °F 29.91 in WSW 5.0 mph 10.0 mph 86% 0.00 in
09:19 80.2 °F 75.6 °F 29.91 in SSW 8.0 mph 10.0 mph 86% 0.00 in
09:24 80.3 °F 75.4 °F 29.91 in WSW 7.0 mph 8.0 mph 85% 0.00 in
09:29 80.7 °F 75.8 °F 29.91 in West 5.0 mph 11.0 mph 85% 0.00 in
09:34 80.9 °F 76.0 °F 29.91 in WSW 6.0 mph 10.0 mph 85% 0.00 in
09:39 81.4 °F 76.1 °F 29.91 in SW 10.0 mph 11.0 mph 84% 0.00 in
09:44 81.7 °F 76.0 °F 29.91 in SSW 4.0 mph 8.0 mph 83% 0.00 in
09:49 82.1 °F 76.4 °F 29.91 in SW 5.0 mph 8.0 mph 83% 0.00 in
09:54 82.3 °F 76.3 °F 29.91 in SSW 7.0 mph 9.0 mph 82% 0.00 in
09:59 82.5 °F 76.4 °F 29.91 in WSW 5.0 mph 9.0 mph 82% 0.00 in
10:04 82.8 °F 76.8 °F 29.91 in WSW 4.0 mph 8.0 mph 82% 0.00 in
10:09 82.8 °F 76.0 °F 29.91 in SSW 3.0 mph 7.0 mph 80% 0.00 in
10:14 82.9 °F 75.7 °F 29.90 in West 5.0 mph 8.0 mph 79% 0.00 in
10:19 83.3 °F 76.5 °F 29.90 in West 3.0 mph 7.0 mph 80% 0.00 in
10:24 83.6 °F 76.8 °F 29.90 in West 3.0 mph 7.0 mph 80% 0.00 in
10:29 83.8 °F 77.0 °F 29.90 in West 4.0 mph 8.0 mph 80% 0.00 in
10:34 83.9 °F 75.9 °F 29.90 in WSW 7.0 mph 9.0 mph 77% 0.00 in
10:39 84.0 °F 76.4 °F 29.90 in SW 7.0 mph 11.0 mph 78% 0.00 in
10:44 84.1 °F 75.7 °F 29.90 in SW 7.0 mph 11.0 mph 76% 0.00 in
10:49 84.5 °F 76.5 °F 29.90 in WNW 4.0 mph 9.0 mph 77% 0.00 in
10:54 84.5 °F 76.1 °F 29.90 in WSW 5.0 mph 9.0 mph 76% 0.00 in
10:59 84.8 °F 76.8 °F 29.90 in WSW 5.0 mph 7.0 mph 77% 0.00 in
11:04 85.1 °F 76.7 °F 29.90 in WSW 12.0 mph 12.0 mph 76% 0.00 in
11:10 85.2 °F 76.4 °F 29.90 in SW 9.0 mph 9.0 mph 75% 0.00 in
11:15 85.1 °F 76.3 °F 29.89 in West 5.0 mph 12.0 mph 75% 0.00 in
11:20 85.3 °F 76.9 °F 29.89 in NW 4.0 mph 7.0 mph 76% 0.00 in
11:25 85.6 °F 77.2 °F 29.89 in West 5.0 mph 11.0 mph 76% 0.00 in
11:30 85.6 °F 76.8 °F 29.90 in West 6.0 mph 10.0 mph 75% 0.00 in
11:35 85.9 °F 77.1 °F 29.89 in WSW 7.0 mph 9.0 mph 75% 0.00 in
11:40 86.1 °F 76.8 °F 29.90 in WSW 7.0 mph 12.0 mph 74% 0.00 in
11:45 86.4 °F 77.1 °F 29.89 in West 8.0 mph 12.0 mph 74% 0.00 in
11:50 86.4 °F 76.3 °F 29.89 in WSW 7.0 mph 14.0 mph 72% 0.00 in
11:55 86.5 °F 76.4 °F 29.89 in WSW 9.0 mph 11.0 mph 72% 0.00 in
12:00 86.3 °F 76.6 °F 29.89 in WNW 9.0 mph 9.0 mph 73% 0.00 in
12:05 86.7 °F 76.6 °F 29.89 in SW 3.0 mph 8.0 mph 72% 0.00 in
12:10 87.4 °F 77.3 °F 29.89 in SW 8.0 mph 12.0 mph 72% 0.00 in
12:15 87.2 °F 76.2 °F 29.89 in SSE 5.0 mph 10.0 mph 70% 0.00 in
12:20 87.3 °F 77.2 °F 29.88 in SSE 5.0 mph 12.0 mph 72% 0.00 in
12:25 87.5 °F 76.9 °F 29.89 in WSW 6.0 mph 10.0 mph 71% 0.00 in
12:30 88.1 °F 76.2 °F 29.88 in SW 8.0 mph 12.0 mph 68% 0.00 in
12:35 88.1 °F 76.7 °F 29.88 in SW 4.0 mph 10.0 mph 69% 0.00 in
12:40 88.3 °F 76.8 °F 29.88 in SSW 5.0 mph 9.0 mph 69% 0.00 in
12:45 88.5 °F 76.6 °F 29.88 in SSW 6.0 mph 11.0 mph 68% 0.00 in
12:50 88.6 °F 76.7 °F 29.88 in SSW 5.0 mph 8.0 mph 68% 0.00 in
12:55 88.4 °F 76.9 °F 29.88 in West 6.0 mph 10.0 mph 69% 0.00 in
13:00 88.8 °F 77.3 °F 29.88 in SSW 3.0 mph 7.0 mph 69% 0.00 in
13:05 88.8 °F 75.5 °F 29.88 in WSW 5.0 mph 10.0 mph 65% 0.00 in
13:10 88.5 °F 76.6 °F 29.88 in WSW 7.0 mph 8.0 mph 68% 0.00 in
13:15 88.3 °F 76.4 °F 29.87 in SW 7.0 mph 10.0 mph 68% 0.00 in
13:20 88.7 °F 77.2 °F 29.87 in South 4.0 mph 9.0 mph 69% 0.00 in
13:25 88.9 °F 76.5 °F 29.87 in WSW 8.0 mph 9.0 mph 67% 0.00 in
13:30 88.6 °F 76.7 °F 29.86 in SW 6.0 mph 11.0 mph 68% 0.00 in
13:35 88.8 °F 76.9 °F 29.86 in SW 4.0 mph 9.0 mph 68% 0.00 in
13:40 89.0 °F 76.2 °F 29.86 in SW 6.0 mph 10.0 mph 66% 0.00 in
13:45 89.1 °F 76.3 °F 29.86 in South 3.0 mph 8.0 mph 66% 0.00 in
13:50 89.3 °F 76.5 °F 29.86 in SW 8.0 mph 13.0 mph 66% 0.00 in
13:56 89.3 °F 76.0 °F 29.86 in SSE 9.0 mph 10.0 mph 65% 0.00 in
14:01 89.6 °F 75.8 °F 29.86 in SSE 9.0 mph 11.0 mph 64% 0.00 in
14:06 89.9 °F 74.7 °F 29.85 in West 8.0 mph 11.0 mph 61% 0.00 in
14:11 89.6 °F 75.3 °F 29.85 in SSW 5.0 mph 13.0 mph 63% 0.00 in
14:16 89.5 °F 75.2 °F 29.85 in WSW 6.0 mph 11.0 mph 63% 0.00 in
14:21 89.8 °F 75.5 °F 29.85 in SW 10.0 mph 13.0 mph 63% 0.00 in
14:26 89.9 °F 75.1 °F 29.85 in SW 5.0 mph 11.0 mph 62% 0.00 in
14:31 90.2 °F 75.4 °F 29.85 in SW 6.0 mph 10.0 mph 62% 0.00 in
14:36 90.1 °F 75.3 °F 29.85 in SSW 6.0 mph 12.0 mph 62% 0.00 in
14:41 90.3 °F 75.5 °F 29.85 in SW 5.0 mph 11.0 mph 62% 0.00 in
14:46 90.5 °F 75.2 °F 29.85 in SW 6.0 mph 9.0 mph 61% 0.00 in
14:52 90.5 °F 76.7 °F 29.84 in WSW 3.0 mph 11.0 mph 64% 0.00 in
14:57 90.7 °F 75.4 °F 29.85 in SSW 8.0 mph 10.0 mph 61% 0.00 in
15:02 90.6 °F 76.3 °F 29.84 in SW 8.0 mph 11.0 mph 63% 0.00 in
15:07 90.5 °F 74.2 °F 29.84 in SSW 10.0 mph 11.0 mph 59% 0.00 in
15:12 90.6 °F 75.3 °F 29.84 in South 5.0 mph 13.0 mph 61% 0.00 in
15:17 90.8 °F 74.5 °F 29.84 in South 7.0 mph 9.0 mph 59% 0.00 in
15:22 91.1 °F 74.8 °F 29.84 in SSW 8.0 mph 10.0 mph 59% 0.00 in
15:27 90.7 °F 74.9 °F 29.84 in South 5.0 mph 12.0 mph 60% 0.00 in
15:32 90.9 °F 75.1 °F 29.84 in SSE 10.0 mph 12.0 mph 60% 0.00 in
15:37 91.0 °F 74.7 °F 29.83 in WSW 10.0 mph 10.0 mph 59% 0.00 in
15:42 91.0 °F 75.7 °F 29.83 in South 7.0 mph 11.0 mph 61% 0.00 in
15:47 91.1 °F 75.3 °F 29.83 in SSW 6.0 mph 10.0 mph 60% 0.00 in
15:52 91.1 °F 75.3 °F 29.83 in West 8.0 mph 10.0 mph 60% 0.00 in
15:57 91.0 °F 74.2 °F 29.83 in WSW 7.0 mph 12.0 mph 58% 0.00 in
16:02 91.1 °F 75.3 °F 29.83 in South 10.0 mph 10.0 mph 60% 0.00 in
16:07 91.0 °F 75.7 °F 29.82 in WSW 5.0 mph 13.0 mph 61% 0.00 in
16:12 91.1 °F 75.8 °F 29.83 in SW 8.0 mph 9.0 mph 61% 0.00 in
16:17 91.0 °F 75.7 °F 29.82 in SW 7.0 mph 10.0 mph 61% 0.00 in
16:22 90.9 °F 74.6 °F 29.82 in SW 10.0 mph 14.0 mph 59% 0.00 in
16:27 90.9 °F 76.6 °F 29.82 in SSW 7.0 mph 12.0 mph 63% 0.00 in
16:32 91.3 °F 77.9 °F 29.82 in SW 5.0 mph 6.0 mph 65% 0.00 in
16:37 91.3 °F 75.0 °F 29.83 in SW 6.0 mph 13.0 mph 59% 0.00 in
16:42 91.4 °F 76.6 °F 29.82 in WSW 7.0 mph 10.0 mph 62% 0.00 in
16:47 91.0 °F 75.7 °F 29.82 in SW 7.0 mph 11.0 mph 61% 0.00 in
16:52 91.1 °F 74.8 °F 29.82 in SSW 8.0 mph 10.0 mph 59% 0.00 in
16:57 91.5 °F 76.2 °F 29.82 in South 3.0 mph 10.0 mph 61% 0.00 in
17:03 91.7 °F 75.8 °F 29.82 in WSW 8.0 mph 11.0 mph 60% 0.00 in
17:08 91.1 °F 75.8 °F 29.82 in SSW 6.0 mph 10.0 mph 61% 0.00 in
17:13 91.3 °F 75.5 °F 29.82 in SSE 6.0 mph 11.0 mph 60% 0.00 in
17:18 91.2 °F 75.9 °F 29.81 in SSW 3.0 mph 9.0 mph 61% 0.00 in
17:23 91.3 °F 76.0 °F 29.81 in South 7.0 mph 11.0 mph 61% 0.00 in
17:28 91.2 °F 75.4 °F 29.81 in SW 10.0 mph 10.0 mph 60% 0.00 in
17:33 91.0 °F 74.7 °F 29.81 in SW 7.0 mph 12.0 mph 59% 0.00 in
17:38 90.9 °F 74.6 °F 29.81 in SW 10.0 mph 12.0 mph 59% 0.00 in
17:43 90.9 °F 75.6 °F 29.80 in SSW 5.0 mph 11.0 mph 61% 0.00 in
18:18 90.7 °F 75.9 °F 29.79 in SW 6.0 mph 9.0 mph 62% 0.00 in
18:23 90.8 °F 75.5 °F 29.79 in SSE 7.0 mph 11.0 mph 61% 0.00 in
18:28 90.8 °F 76.0 °F 29.79 in SW 5.0 mph 11.0 mph 62% 0.00 in
18:33 90.9 °F 74.6 °F 29.79 in SW 9.0 mph 11.0 mph 59% 0.00 in
18:38 90.7 °F 74.9 °F 29.79 in SW 7.0 mph 12.0 mph 60% 0.00 in
18:43 90.8 °F 75.5 °F 29.78 in SSW 6.0 mph 9.0 mph 61% 0.00 in
18:48 90.7 °F 75.4 °F 29.78 in South 7.0 mph 10.0 mph 61% 0.00 in
18:53 90.5 °F 75.2 °F 29.77 in SSW 7.0 mph 10.0 mph 61% 0.00 in
18:58 90.2 °F 75.9 °F 29.77 in SSW 6.0 mph 13.0 mph 63% 0.00 in
19:03 90.1 °F 75.8 °F 29.77 in SSW 6.0 mph 10.0 mph 63% 0.00 in
19:08 90.0 °F 75.2 °F 29.77 in SW 9.0 mph 10.0 mph 62% 0.00 in
19:13 89.8 °F 76.0 °F 29.78 in West 6.0 mph 9.0 mph 64% 0.00 in
19:18 89.7 °F 75.4 °F 29.78 in WSW 6.0 mph 15.0 mph 63% 0.00 in
19:23 89.5 °F 75.7 °F 29.78 in SSW 2.0 mph 10.0 mph 64% 0.00 in
19:28 89.4 °F 75.2 °F 29.78 in SW 4.0 mph 12.0 mph 63% 0.00 in
19:33 89.2 °F 75.4 °F 29.78 in SSW 4.0 mph 12.0 mph 64% 0.00 in
19:38 89.0 °F 75.7 °F 29.78 in SW 4.0 mph 8.0 mph 65% 0.00 in
19:43 88.8 °F 76.0 °F 29.79 in WSW 8.0 mph 10.0 mph 66% 0.00 in
19:48 88.6 °F 75.8 °F 29.79 in SW 9.0 mph 9.0 mph 66% 0.00 in
19:53 88.4 °F 75.6 °F 29.79 in SW 5.0 mph 9.0 mph 66% 0.00 in
19:58 88.3 °F 76.0 °F 29.79 in SW 6.0 mph 7.0 mph 67% 0.00 in
20:03 88.1 °F 75.8 °F 29.79 in SW 7.0 mph 9.0 mph 67% 0.00 in
20:08 88.0 °F 76.1 °F 29.79 in SSW 7.0 mph 9.0 mph 68% 0.00 in
20:13 87.8 °F 75.5 °F 29.78 in SW 3.0 mph 7.0 mph 67% 0.00 in
20:18 87.6 °F 75.7 °F 29.78 in SW 4.0 mph 6.0 mph 68% 0.00 in
20:23 87.3 °F 75.9 °F 29.78 in SW 6.0 mph 6.0 mph 69% 0.00 in
20:28 86.8 °F 75.8 °F 29.78 in WSW 4.0 mph 6.0 mph 70% 0.00 in
20:33 86.4 °F 75.5 °F 29.79 in SSW 4.0 mph 6.0 mph 70% 0.00 in
20:38 85.8 °F 75.7 °F 29.79 in SW 3.0 mph 5.0 mph 72% 0.00 in
20:43 85.3 °F 75.7 °F 29.79 in SSE 3.0 mph 5.0 mph 73% 0.00 in
20:48 85.0 °F 75.4 °F 29.79 in SW 2.0 mph 5.0 mph 73% 0.00 in
20:53 84.8 °F 75.2 °F 29.79 in SW 5.0 mph 6.0 mph 73% 0.00 in
20:58 84.5 °F 75.3 °F 29.79 in SW 5.0 mph 5.0 mph 74% 0.00 in
21:04 84.2 °F 75.0 °F 29.80 in SSW 4.0 mph 7.0 mph 74% 0.00 in
21:09 84.1 °F 75.3 °F 29.80 in SSW 2.0 mph 5.0 mph 75% 0.00 in
21:14 83.9 °F 74.7 °F 29.81 in SW 3.0 mph 5.0 mph 74% 0.00 in
21:19 83.6 °F 74.8 °F 29.81 in SW 2.0 mph 5.0 mph 75% 0.00 in
21:24 83.4 °F 75.1 °F 29.81 in SSW 4.0 mph 5.0 mph 76% 0.00 in
21:29 83.2 °F 74.8 °F 29.82 in SSW 2.0 mph 3.0 mph 76% 0.00 in
21:34 82.9 °F 74.9 °F 29.82 in Calm   2.0 mph 77% 0.00 in
21:39 82.6 °F 74.7 °F 29.82 in SW 1.0 mph 2.0 mph 77% 0.00 in
21:44 82.5 °F 74.6 °F 29.82 in SSE 2.0 mph 3.0 mph 77% 0.00 in
21:49 82.4 °F 74.9 °F 29.82 in SW 2.0 mph 3.0 mph 78% 0.00 in
21:54 82.3 °F 74.4 °F 29.83 in WSW 3.0 mph 6.0 mph 77% 0.00 in
21:59 82.4 °F 74.9 °F 29.84 in WSW 2.0 mph 4.0 mph 78% 0.00 in
22:04 82.3 °F 74.8 °F 29.84 in West 1.0 mph 2.0 mph 78% 0.00 in
22:09 82.2 °F 74.7 °F 29.84 in SW 2.0 mph 3.0 mph 78% 0.00 in
22:14 82.0 °F 74.5 °F 29.84 in Calm   3.0 mph 78% 0.00 in
22:19 81.8 °F 74.7 °F 29.85 in WSW 2.0 mph 3.0 mph 79% 0.00 in
22:24 81.8 °F 74.7 °F 29.85 in Calm   2.0 mph 79% 0.00 in
22:29 81.6 °F 74.5 °F 29.86 in SSW 1.0 mph 2.0 mph 79% 0.00 in
22:34 81.6 °F 74.5 °F 29.86 in SW 1.0 mph 2.0 mph 79% 0.00 in
22:39 81.5 °F 74.4 °F 29.86 in South 2.0 mph 3.0 mph 79% 0.00 in
22:44 81.5 °F 74.4 °F 29.86 in SW 1.0 mph 3.0 mph 79% 0.00 in
22:49 81.5 °F 74.7 °F 29.86 in SW 3.0 mph 4.0 mph 80% 0.00 in
22:54 81.4 °F 74.6 °F 29.86 in Calm   3.0 mph 80% 0.00 in
22:59 81.2 °F 74.8 °F 29.87 in SW 1.0 mph 2.0 mph 81% 0.00 in
23:04 81.1 °F 74.7 °F 29.87 in SSW 1.0 mph 3.0 mph 81% 0.00 in
23:09 81.1 °F 74.7 °F 29.87 in SW 1.0 mph 3.0 mph 81% 0.00 in
23:14 80.9 °F 74.5 °F 29.87 in SSW 1.0 mph 2.0 mph 81% 0.00 in
23:19 80.7 °F 74.7 °F 29.87 in SW 2.0 mph 3.0 mph 82% 0.00 in
23:24 80.6 °F 74.6 °F 29.86 in SSW 1.0 mph 3.0 mph 82% 0.00 in
23:29 80.5 °F 74.5 °F 29.87 in SW 1.0 mph 3.0 mph 82% 0.00 in
23:34 80.5 °F 74.9 °F 29.87 in SW 2.0 mph 2.0 mph 83% 0.00 in
23:39 80.3 °F 74.7 °F 29.87 in SW 1.0 mph 3.0 mph 83% 0.00 in
23:44 80.1 °F 74.5 °F 29.87 in SW 2.0 mph 4.0 mph 83% 0.00 in
23:49 80.0 °F 74.7 °F 29.87 in SSW 2.0 mph 2.0 mph 84% 0.00 in
23:54 79.9 °F 74.6 °F 29.86 in SSE 2.0 mph 2.0 mph 84% 0.00 in
Compliments of Weather Underground